Torna al catalogo

STARLINK-1641

AttivoComunicazioniVLEO
NORAD 46174·PAYLOAD·🇺🇸 United States

Lanciato Aug 18, 2020 da Cape Canaveral Space Force Station

Loading…

Prossimi Passaggi (prossime 24 ore)

TLE

AggiornatoSource: CelesTrak SupGP

Epoca: Sep 14, 2026, 22:10 UTC

1 46174C 20057BK  26257.92409722  .00251470  00000+0  10318-2 0  2573
2 46174  53.0365  77.9440 0002708 213.1242 287.1586 15.85165619    14

Traccia STARLINK-1641 in tempo reale con AllMySat

Download on the App Store